TIME,DELAY(SENSOR),PRES,OXYGEN,RAWTEMP,T(OPTODE),TCPHASE,FLUOR,BETA(BETA700),BETA(BETA412),BETA(BETA440),CDOM,C(CSC),ED(ED412.20),ED(ED444.00),ED(ED489.60),ED(ED554.30),LU(LU412.10),LU(LU443.90),LU(LU489.70),LU(LU554.70),COMP,TILTX,TILTY,CHECK
1337139973,5810,885.7600097656250000,39.8251686096191400,564.2459716796875000,4.3542289733886720,55.5848693847656250,56,100,102,78,84,15483,0,0,0,0,2147129389,2147776585,2147571254,2147574326,1121,2,13,62796
1337143569,5807,966.9600219726562000,44.0118598937988300,570.3287963867188000,4.1653418540954590,55.0353889465332000,55,102,101,77,83,15485,0,0,0,0,2147127643,2147775058,2147574162,2147570230,211,2,13,48534
1337147169,5811,976.0300292968750000,45.5868492126464840,573.6301269531250000,4.0626959800720215,54.8488082885742200,55,99,102,79,83,15482,0,0,0,0,2147129289,2147771648,2147577645,2147572717,235,2,13,45740
1337150769,5809,983.5700073242188000,45.8783187866210940,574.1926269531250000,4.0451998710632320,54.8118095397949200,55,99,103,80,83,15484,0,0,0,0,2147125677,2147777088,2147571483,2147571675,48,2,13,65431
1337154369,5810,993.0300292968750000,45.0369491577148440,572.1578979492188000,4.1084818840026855,54.9126510620117200,55,98,103,78,84,15481,0,0,0,0,2147129636,2147776694,2147571117,2147569033,180,2,13,29252
1337157969,5810,988.8200073242188000,44.9939384460449200,573.4990844726562000,4.0667710304260250,54.9307212829589840,55,100,102,79,84,15480,0,0,0,0,2147125348,2147776338,2147573568,2147575232,7,2,13,7272
1337161569,5808,989.9600219726562000,45.5153694152832000,574.5109252929688000,4.0352969169616700,54.8679695129394500,55,99,101,78,85,15481,0,0,0,0,2147128658,2147772315,2147565613,2147573184,154,2,13,3308
1337165169,5810,990.4000244140625000,45.3156204223632800,574.4176025390625000,4.0381979942321780,54.8936614990234400,56,102,101,79,83,15478,0,0,0,0,2147128630,2147774966,2147573430,2147572178,619,2,13,22008
1337168769,5809,991.0399780273438000,45.1409301757812500,574.6343994140625000,4.0314521789550780,54.9194717407226560,54,100,103,78,84,15474,0,0,0,0,2147130203,2147775021,2147572900,2147573092,176,2,13,64234
1337172369,5811,997.4799804687500000,45.7924194335937500,574.7590942382812000,4.0275731086730960,54.8337287902832000,55,101,102,78,84,15479,0,0,0,0,2147125248,2147775616,2147576996,2147571181,45,2,13,48267
1337175969,5810,993.7500000000000000,45.4613494873046900,574.7593994140625000,4.0275630950927730,54.8784217834472660,54,103,102,78,83,15479,0,0,0,0,2147123702,2147775533,2147573860,2147571520,605,2,13,65423
1337179569,5809,986.2899780273438000,45.4297485351562500,575.7672119140625000,3.9962010383605957,54.8978195190429700,55,103,101,78,84,15476,0,0,0,0,2147125110,2147772096,2147578450,2147574857,297,2,13,47076
1337183169,5808,988.2600097656250000,45.6022186279296900,576.6633300781250000,3.9683070182800293,54.8775711059570300,56,101,102,78,85,15477,0,0,0,0,2147128420,2147775753,2147575917,2147570816,348,2,13,22440
1337186769,5811,995.2399902343750000,45.9916915893554700,575.5960083007812000,4.0015277862548830,54.8111610412597660,56,104,101,78,84,15474,0,0,0,0,2147127561,2147773979,2147568704,2147573412,109,2,13,35185
1337190369,5808,991.6199951171875000,45.1457405090332000,575.8057861328125000,3.9949989318847656,54.9333305358886700,55,99,102,78,83,15477,0,0,0,0,2147124873,2147774116,2147574445,2147571556,3409,2,13,37048
1337193969,5810,996.4699707031250000,45.1525115966796900,574.6953735351562000,4.0295538902282715,54.9201698303222660,55,100,101,78,83,15474,0,0,0,0,2147125851,2147771163,2147577837,2147568768,339,2,13,60435
1337197569,5811,1000.7100219726562000,45.7331695556640600,575.2269287109375000,4.0130138397216800,54.8420181274414060,54,99,103,78,84,15475,0,0,0,0,2147121874,2147771657,2147575314,2147569700,2,2,13,12839
1337201169,5811,1005.2399902343750000,45.7536010742187500,574.9409179687500000,4.0219149589538570,54.8431510925293000,54,101,102,79,83,15473,0,0,0,0,2147124516,2147775076,2147573933,2147569444,3564,2,13,43262
1337204769,5812,996.3400268554688000,44.6385192871093750,575.1655273437500000,4.0149269104003910,55.0007896423339840,54,101,102,79,83,15472,0,0,0,0,2147123904,2147774966,2147575186,2147571282,195,2,13,16819
1337208369,5811,1000.4600219726562000,44.5333213806152340,574.8402099609375000,4.0250492095947270,55.0136985778808600,55,101,101,79,82,15473,0,0,0,0,2147125805,2147775707,2147572745,2147574528,354,2,13,56590
1337211969,5806,998.0700073242188000,44.2223091125488300,575.0297241210938000,4.0191521644592285,55.0609397888183600,55,100,102,79,84,15470,0,0,0,0,2147125824,2147775716,2147571510,2147572470,403,2,13,26540
1337215569,5810,1001.0499877929688000,44.2493896484375000,574.9592285156250000,4.0213451385498050,55.0557212829589840,54,100,102,79,84,15470,0,0,0,0,2147125056,2147778084,2147577435,2147570048,685,2,13,39720
1337219169,5811,1005.2800292968750000,44.3489303588867200,575.1373901367188000,4.0158019065856930,55.0396995544433600,54,116,101,79,83,15464,0,0,0,0,2147126125,2147770825,2147575762,2147573129,29,2,13,7447
1337222769,5812,999.0900268554688000,44.6328010559082000,574.9354858398438000,4.0220851898193360,54.9949493408203100,55,105,102,78,85,15463,0,0,0,0,2147128027,2147774400,2147573641,2147571392,3412,2,13,18304
1337226369,5809,1000.0100097656250000,45.0216407775878900,574.9420166015625000,4.0218811035156250,54.9423103332519500,55,101,102,78,84,15462,0,0,0,0,2147130194,2147772553,2147573449,2147573165,3402,2,13,5023
1337229969,5813,994.9199829101562000,45.2944412231445300,574.9995117187500000,4.0200939178466800,54.9044113159179700,54,101,103,78,84,15450,0,0,0,0,2147125440,2147780297,2147576018,2147572059,2,2,13,59969
1337233569,5812,994.9299926757812000,45.8159599304199200,576.3837890625000000,3.9770090579986572,54.8485984802246100,56,102,101,79,83,15451,0,0,0,0,2147124489,2147773156,2147579200,2147570962,3172,2,13,13651
1337237169,5812,999.4699707031250000,46.0771789550781250,576.2979125976562000,3.9796810150146484,54.8113899230957000,54,98,102,78,84,15451,0,0,0,0,2147125174,2147779712,2147573595,2147568941,3473,2,13,12014
1337240769,5810,994.5300292968750000,45.6326293945312500,576.5153198242188000,3.9729158878326416,54.8769798278808600,54,100,101,80,84,15451,0,0,0,0,2147126363,2147772416,2147571830,2147571126,144,2,13,41380
1337244369,5811,998.6699829101562000,45.8116493225097660,576.9392700195312000,3.9597110748291016,54.8502693176269500,55,98,104,79,83,15450,0,0,0,0,2147128274,2147773860,2147578185,2147574692,3389,2,13,11612
1337247969,5810,1009.3499755859375000,46.4101982116699200,576.2208251953125000,3.9820799827575684,54.7630081176757800,55,101,101,78,83,15454,0,0,0,0,2147127762,2147776923,2147576009,2147571200,72,2,13,9885
1337251569,5810,1005.0999755859375000,44.4164581298828100,575.2841186523438000,4.0112361907958980,55.0318107604980500,55,99,101,78,83,15454,0,0,0,0,2147126555,2147774747,2147576365,2147571547,116,2,13,24230
1337255169,5806,1002.4299926757812000,44.8809089660644500,574.7866210937500000,4.0267162322998050,54.9616394042968750,56,100,101,79,83,15449,0,0,0,0,2147128082,2147774326,2147571090,2147573138,315,2,13,52873
1337258769,5809,1003.0200195312500000,45.7673187255859400,576.3389282226562000,3.9784030914306640,54.8511695861816400,55,103,102,77,84,15449,0,0,0,0,2147129837,2147775222,2147571995,2147570742,179,2,13,33084
1337262369,5811,1002.5100097656250000,44.8468589782714840,575.4589843750000000,4.0057911872863770,54.9750099182128900,56,103,101,79,85,15449,0,0,0,0,2147125248,2147779117,2147571894,2147573211,2957,2,13,50761
1337265969,5810,1001.8200073242188000,45.7737998962402340,576.3317871093750000,3.9786241054534910,54.8490409851074200,56,98,101,78,84,15446,0,0,0,0,2147125714,2147775908,2147575762,2147570934,3554,2,13,28544
1337269569,5809,1006.5700073242188000,46.3548698425293000,576.3007202148438000,3.9795949459075928,54.7683296203613300,55,101,102,78,83,15449,0,0,0,0,2147126400,2147778569,2147576768,2147570331,323,2,13,55061
1337273169,5809,1008.3099975585938000,46.3884201049804700,576.0966186523438000,3.9859468936920166,54.7611503601074200,55,101,103,76,83,15442,0,0,0,0,2147127387,2147767634,2147576905,2147570404,431,2,13,8473
1337276769,5809,1005.1699829101562000,46.3311805725097660,576.2647094726562000,3.9807150363922120,54.7758712768554700,56,100,102,80,84,15441,0,0,0,0,2147124489,2147774144,2147580507,2147569051,466,2,13,37339
1337280369,5811,1016.4199829101562000,45.8330688476562500,575.0983276367188000,4.0170187950134280,54.8310890197753900,55,102,101,78,84,15432,0,0,0,0,2147123776,2147772809,2147574555,2147571419,3466,2,13,65170
1337282156,5810,1007.6699829101562000,45.0720291137695300,574.5258789062500000,4.0348300933837890,54.9304313659668000,55,100,102,79,84,15434,0,0,0,0,2147125284,2147773677,2147570304,2147569133,128,2,13,2037
